Location: Lane
(33.5226°N, 79.8788°W)
Time: 17:57:32
(UTC+00:00)

Transit 2A - Pass Details

Date: 04 October 2022
Orbit: 598 x 959 km, 66.7° (Epoch: 06 December)

Event Time Altitude Azimuth Distance (km) Brightness Sun altitude
Rises 05:00:00 0° 256° (WSW) 2,913 - -60.8°
Reaches altitude 10° 05:04:07 10° 293° (WNW) 1,960 - -60.8°
Maximum altitude 05:05:17 11° 309° (NW) 1,891 - -60.8°
Drops below altitude 10° 05:06:28 10° 325° (NW) 1,946 - -60.8°
Sets 05:10:31 0° 3° (N) 2,845 - -60.8°
